Regional Weather Roundup
Issued by NWS Sterling, VA

Home | Current Version | Previous Version | Graphics & Text | Print | Product List | Glossary On
Versions: 1 2 3 4 5 6 7 8 9 10 11 12 13 14 15 16 17 18 19 20 21 22 23 24 25 26 27 28 29 30 31 32 33 34 35 36 37 38 39 40 41 42 43 44 45 46 47 48 49 50
000
ASUS41 KLWX 040410
RWRLWX

REGIONAL WEATHER ROUNDUP
NATIONAL WEATHER SERVICE BALTIMORE MD/WASHINGTON DC
1200 AM EDT TUE AUG 04 2015

Note: "FAIR" indicates few or no clouds below 12,000 feet
with no significant weather and/or obstructions to visibility.
 TC=TEMPERATURE CELSIUS

 * =Non NWS site. Station does not report precipitation (e.g. rain,
    snow, etc.), thunder, or fog.

DCZ001-MDZ009-015-VAZ040>042-051-053>054-040500-
WASHINGTON METRO

CITY           SKY/WX    TMP DP  RH WIND       PRES   REMARKS
WASHINGTON NAT MOCLDY    82  68  62 S8        29.84S
DULLES         PTCLDY    77  63  61 S8        29.84R
ANDREWS AFB    CLEAR     77  67  70 S9        29.84S
FT BELVOIR     CLEAR     74  69  84 CALM      29.84R
COLLEGE PARK*  CLEAR     81  64  57 S3        29.83R
LEESBURG*      CLEAR     77  68  73 SW5       29.86R
MANASSAS*      CLEAR     72  66  83 CALM      29.85R
GAITHERSBURG*  PTCLDY    79  61  53 S5        29.89R

$$

MDZ006>007-011-014-040500-
BALTIMORE METRO

CITY           SKY/WX    TMP DP  RH WIND       PRES   REMARKS
BWI AIRPORT    PTCLDY    78  66  66 SW5       29.83R
MD SCIENCE CTR   N/A     82  65  56 MISG      29.83R
MARTIN STATE   PTCLDY    81  70  69 CALM      29.84R
ANNAPOLIS      CLEAR     79  69  71 S5        29.83S
FORT MEADE*    PTCLDY    70  66  88 CALM      29.86R

$$

MDZ012-015-019>023-040500-
MARYLAND EASTERN SHORE

CITY           SKY/WX    TMP DP  RH WIND       PRES   REMARKS
OCEAN CITY     CLEAR     80  75  84 SW14      29.88S
SALISBURY      FAIR      77  74  90 S8        29.87S
BAY BRIDGE AP*   N/A     81  70  69 S5        29.83S
CAMBRIDGE*     CLEAR     79  72  78 S6        29.85S
EASTON*        CLEAR     81  75  82 SW9       29.88S

$$

MDZ017>025-040500-
SOUTHERN MARYLAND

CITY           SKY/WX    TMP DP  RH WIND       PRES   REMARKS
PATUXENT RIVER CLEAR     80  71  74 SW10      29.86R
ST INIGOES     CLEAR     81  73  76 S8        29.85S
LEONARDTOWN*   CLEAR     79  70  73 CALM      29.88R

$$

MDZ003>005-040500-
NORTH CENTRAL MARYLAND

CITY           SKY/WX    TMP DP  RH WIND       PRES   REMARKS
FREDERICK*     MOCLDY    72  68  88 CALM      29.86R
HAGERSTOWN APT PTCLDY    78  64  61 S5        29.85R
WESTMINSTER*   MOCLDY    79  63  57 S6        29.85S

$$

MDZ501>502-040500-
WESTERN MARYLAND

CITY           SKY/WX    TMP DP  RH WIND       PRES   REMARKS
OAKLAND*       MOCLDY    68 N/A N/A SW8       29.97S
CUMBERLAND*    PTCLDY    77  61  57 SE5       29.89F

$$

VAZ025>031-040500-
SHENANDOAH VALLEY

CITY           SKY/WX    TMP DP  RH WIND       PRES   REMARKS
WINCHESTER*    MOCLDY    79  63  57 SW5       29.87R
FRONT ROYAL*   FAIR      77  63  61 SW6       29.87R
LURAY*         FAIR      77  63  61 SW5       29.89R
NEW MARKET*    FAIR      73  63  70 W3        29.89R
STAUNTON*      PTCLDY    74  62  65 CALM      29.94R
WAYNESBORO*    FAIR      72  60  65 S3        29.95R

$$

WVZ021-048>050-054>055-040500-
EASTERN WEST VIRGINIA PANHANDLE

CITY           SKY/WX    TMP DP  RH WIND       PRES   REMARKS
MARTINSBURG    MOCLDY    71  65  81 CALM      29.86R
PETERSBURG*    PTCLDY    67  63  84 CALM      29.91S

$$

VAZ036>039-050-040500-
CENTRAL FOOTHILLS

CITY           SKY/WX    TMP DP  RH WIND       PRES   REMARKS
CHARLOTTESVILL PTCLDY    72  65  78 SW3       29.89R
CULPEPER*      CLEAR     71  64  80 SW3       29.87R
ORANGE*        CLEAR     72  66  83 CALM      29.89R
GORDONSVILLE*  FAIR      68  66  94 CALM      29.88R
WARRENTON*     FAIR      74  67  78 SW3       29.86R

$$

VAZ055>057-040500-
NORTH AND CENTRAL PIEDMONT

CITY           SKY/WX    TMP DP  RH WIND       PRES   REMARKS
FREDERICKSBRG* CLEAR     80  69  67 SW9       29.85R
STAFFORD*      CLEAR     73  66  77 CALM      29.90R

$$

NCZ024-NYZ072-PAZ021-071-VAZ022-071-040500-
OTHER REGIONAL OBSERVATIONS

CITY           SKY/WX    TMP DP  RH WIND       PRES   REMARKS
NEW YORK CITY  PTCLDY    83  60  45 CALM      29.84S
PHILADELPHIA   PTCLDY    80  69  69 S7        29.82F
PITTSBURGH     MOCLDY    66  63  90 S3        29.86S
ROANOKE        PTCLDY    76  60  57 CALM      29.97R
RICHMOND       PTCLDY    78  70  76 S8        29.89R
RALEIGH        PTCLDY    80  68  66 SW14G20   29.97R

$$

ANZ530>537-040500-
MARINE OBSERVATIONS

STATION/POSITION TIME  TEMP    WIND        PRES
                       AIR SEA DIR/SP/G
                 (UTC) (F)     (DEG/KT/KT) (MB)
THOMAS PT LIGHT  NOT AVBL
BALT KEY BRIDGE  0300   81     200/  8/ 10 1009.5F
COVE POINT       0300   81     220/ 11/ 16 1011.3F
LEWISETTA        0300   81 85  220/ 11/ 14 1010.7F
SOLOMONS ISLAND  0300      84                N/A
PINEY POINT      0300          220/ 14/ 16   N/A

$$




USA.gov is the U.S. government's official web portal to all federal, state and local government web resources and services.